| time (UTC) | temp F | wind direction | speed knots | gust knots | rain 1hr in | rain 24hr in | rain mn in | humidity % | barometer mb |
| 20260506201302 | 80 | 178 | 3.5 | 5.2 | 0.00 | 0.00 | 0.00 | 67 | 1014.8 |
| 20260506200759 | 80 | 183 | 4.3 | 6.1 | 0.00 | 0.00 | 0.00 | 68 | 1014.9 |
| 20260506200255 | 80 | 177 | 5.2 | 6.1 | 0.00 | 0.00 | 0.00 | 68 | 1015.2 |
| 20260506195751 | 79 | 181 | 3.5 | 5.2 | 0.00 | 0.00 | 0.00 | 69 | 1015.4 |
| 20260506195248 | 79 | 218 | 1.7 | 4.3 | 0.00 | 0.00 | 0.00 | 68 | 1015.5 |
| 20260506194746 | 79 | 168 | 2.6 | 4.3 | 0.00 | 0.00 | 0.00 | 68 | 1015.3 |
| 20260506194242 | 79 | 194 | 2.6 | 2.6 | 0.00 | 0.00 | 0.00 | 67 | 1015.4 |
| 20260506193740 | 80 | 180 | 3.5 | 4.3 | 0.00 | 0.00 | 0.00 | 66 | 1015.2 |
| 20260506193236 | 80 | 239 | 4.3 | 5.2 | 0.00 | 0.00 | 0.00 | 67 | 1015.6 |
| 20260506192732 | 80 | 127 | 7.0 | 8.7 | 0.00 | 0.00 | 0.00 | 67 | 1015.3 |
| 20260506192229 | 80 | 197 | 3.5 | 4.3 | 0.00 | 0.00 | 0.00 | 68 | 1015.6 |
| 20260506191726 | 80 | 195 | 4.3 | 5.2 | 0.00 | 0.00 | 0.00 | 68 | 1015.5 |
| 20260506191222 | 80 | 201 | 1.7 | 1.7 | 0.00 | 0.00 | 0.00 | 68 | 1015.8 |
| 20260506190720 | 79 | 214 | 2.6 | 4.3 | 0.00 | 0.00 | 0.00 | 68 | 1015.4 |
| 20260506190216 | 79 | 167 | 4.3 | 6.1 | 0.00 | 0.00 | 0.00 | 68 | 1015.3 |
| 20260506185714 | 79 | 175 | 7.0 | 7.8 | 0.00 | 0.00 | 0.00 | 68 | 1015.7 |
| 20260506185210 | 79 | 178 | 6.1 | 7.0 | 0.00 | 0.00 | 0.00 | 68 | 1015.9 |
| 20260506184708 | 79 | 182 | 6.1 | 7.8 | 0.00 | 0.00 | 0.00 | 68 | 1016.3 |
| 20260506184205 | 79 | 230 | 2.6 | 2.6 | 0.00 | 0.00 | 0.00 | 68 | 1016.4 |
| 20260506183701 | 79 | 186 | 4.3 | 6.1 | 0.00 | 0.00 | 0.00 | 67 | 1016.2 |
| 20260506183157 | 79 | 124 | 3.5 | 6.1 | 0.00 | 0.00 | 0.00 | 67 | 1016.3 |
| 20260506182654 | 79 | 198 | 4.3 | 6.1 | 0.00 | 0.00 | 0.00 | 67 | 1016.2 |
| 20260506182151 | 79 | 210 | 4.3 | 5.2 | 0.00 | 0.00 | 0.00 | 66 | 1016.0 |
| 20260506181644 | 80 | 187 | 3.5 | 4.3 | 0.00 | 0.00 | 0.00 | 66 | 1016.6 |
| 20260506181141 | 80 | 230 | 2.6 | 4.3 | 0.00 | 0.00 | 0.00 | 66 | 1016.9 |
| 20260506180637 | 80 | 183 | 2.6 | 2.6 | 0.00 | 0.00 | 0.00 | 65 | 1016.9 |
| 20260506180134 | 80 | 207 | 4.3 | 6.1 | 0.00 | 0.00 | 0.00 | 65 | 1016.9 |
| 20260506175630 | 80 | 219 | 2.6 | 4.3 | 0.00 | 0.00 | 0.00 | 65 | 1017.2 |
| 20260506175126 | 80 | 208 | 1.7 | 2.6 | 0.00 | 0.00 | 0.00 | 64 | 1017.3 |
| 20260506174625 | 80 | 204 | 1.7 | 1.7 | 0.00 | 0.00 | 0.00 | 64 | 1017.1 |
| 20260506174122 | 80 | 202 | 7.0 | 7.8 | 0.00 | 0.00 | 0.00 | 64 | 1017.1 |
| 20260506173619 | 80 | 179 | 2.6 | 2.6 | 0.00 | 0.00 | 0.00 | 65 | 1017.0 |
| 20260506173116 | 80 | 207 | 0.9 | 0.9 | 0.00 | 0.00 | 0.00 | 66 | 1017.1 |
| 20260506172613 | 80 | 171 | 6.1 | 7.8 | 0.00 | 0.00 | 0.00 | 67 | 1017.4 |
| 20260506172109 | 80 | 220 | 5.2 | 6.1 | 0.00 | 0.00 | 0.00 | 65 | 1017.5 |
| 20260506171607 | 80 | 178 | 5.2 | 7.8 | 0.00 | 0.00 | 0.00 | 66 | 1017.6 |
| 20260506171104 | 80 | 177 | 6.1 | 9.6 | 0.00 | 0.00 | 0.00 | 67 | 1017.7 |
| 20260506170602 | 80 | 110 | 5.2 | 6.1 | 0.00 | 0.00 | 0.00 | 68 | 1017.6 |
| 20260506170059 | 79 | 217 | 2.6 | 2.6 | 0.00 | 0.00 | 0.00 | 68 | 1017.8 |
| 20260506165557 | 78 | 243 | 4.3 | 5.2 | 0.00 | 0.00 | 0.00 | 69 | 1017.7 |
| 20260506165053 | 79 | 187 | 6.1 | 9.6 | 0.00 | 0.00 | 0.00 | 69 | 1017.8 |
| 20260506164551 | 79 | 210 | 2.6 | 4.3 | 0.00 | 0.00 | 0.00 | 69 | 1018.0 |
| 20260506164048 | 80 | 203 | 6.1 | 11.3 | 0.00 | 0.00 | 0.00 | 68 | 1018.0 |
| 20260506163543 | 80 | 198 | 3.5 | 4.3 | 0.00 | 0.00 | 0.00 | 69 | 1018.0 |
| 20260506163039 | 79 | 226 | 3.5 | 6.1 | 0.00 | 0.00 | 0.00 | 70 | 1018.0 |
| 20260506162536 | 78 | 195 | 3.5 | 4.3 | 0.00 | 0.00 | 0.00 | 73 | 1017.8 |
| 20260506162033 | 78 | 191 | 2.6 | 2.6 | 0.00 | 0.00 | 0.00 | 71 | 1017.8 |
| 20260506161531 | 79 | 196 | 6.1 | 7.8 | 0.00 | 0.00 | 0.00 | 70 | 1018.0 |
| 20260506161027 | 79 | 262 | 2.6 | 2.6 | 0.00 | 0.00 | 0.00 | 71 | 1017.9 |
| 20260506160525 | 79 | 190 | 6.1 | 6.1 | 0.00 | 0.00 | 0.00 | 70 | 1017.5 |
| 20260506160022 | 78 | 224 | 2.6 | 2.6 | 0.00 | 0.00 | 0.00 | 72 | 1017.5 |
| 20260506155520 | 78 | 246 | 2.6 | 2.6 | 0.00 | 0.00 | 0.00 | 71 | 1017.7 |
| 20260506153652 | 76 | 189 | 0.9 | 2.6 | 0.00 | 0.00 | 0.00 | 73 | 1017.9 |
| 20260506153149 | 77 | 223 | 2.6 | 4.3 | 0.00 | 0.00 | 0.00 | 72 | 1017.6 |
| 20260506152646 | 76 | 169 | 6.1 | 7.8 | 0.00 | 0.00 | 0.00 | 72 | 1017.8 |
| 20260506152143 | 76 | 220 | 3.5 | 5.2 | 0.00 | 0.00 | 0.00 | 74 | 1017.9 |
| 20260506151642 | 76 | 186 | 4.3 | 5.2 | 0.00 | 0.00 | 0.00 | 72 | 1017.7 |
| 20260506151138 | 77 | 215 | 5.2 | 6.1 | 0.00 | 0.00 | 0.00 | 72 | 1017.8 |
| 20260506150635 | 75 | 180 | 1.7 | 1.7 | 0.00 | 0.00 | 0.00 | 74 | 1018.0 |
| 20260506150132 | 76 | 196 | 5.2 | 6.1 | 0.00 | 0.00 | 0.00 | 74 | 1017.9 |
| 20260506145629 | 75 | 166 | 4.3 | 5.2 | 0.00 | 0.00 | 0.00 | 74 | 1017.7 |
| 20260506145126 | 76 | 226 | 1.7 | 2.6 | 0.00 | 0.00 | 0.00 | 74 | 1017.9 |
| 20260506144624 | 75 | 179 | 3.5 | 4.3 | 0.00 | 0.00 | 0.00 | 75 | 1017.9 |
| 20260506144120 | 74 | 175 | 4.3 | 5.2 | 0.00 | 0.00 | 0.00 | 76 | 1018.0 |
| 20260506143618 | 74 | 219 | 1.7 | 2.6 | 0.00 | 0.00 | 0.00 | 77 | 1017.7 |
| 20260506143116 | 74 | 228 | 6.1 | 7.0 | 0.00 | 0.00 | 0.00 | 77 | 1017.9 |
| 20260506142614 | 73 | 187 | 4.3 | 6.1 | 0.00 | 0.00 | 0.00 | 78 | 1018.0 |
| 20260506142112 | 73 | 189 | 3.5 | 4.3 | 0.00 | 0.00 | 0.00 | 79 | 1017.8 |
| 20260506141609 | 72 | 156 | 5.2 | 6.1 | 0.00 | 0.00 | 0.00 | 81 | 1017.8 |
| 20260506141107 | 71 | 188 | 4.3 | 5.2 | 0.00 | 0.00 | 0.00 | 82 | 1017.7 |
| 20260506140604 | 71 | 189 | 1.7 | 1.7 | 0.00 | 0.00 | 0.00 | 83 | 1017.8 |
| 20260506135558 | 70 | 210 | 1.7 | 1.7 | 0.00 | 0.00 | 0.00 | 84 | 1017.9 |
| 20260506135054 | 70 | 216 | 3.5 | 4.3 | 0.00 | 0.00 | 0.00 | 84 | 1017.9 |
| 20260506134551 | 69 | 215 | 3.5 | 4.3 | 0.00 | 0.00 | 0.00 | 85 | 1017.9 |
| 20260506134047 | 69 | 199 | 4.3 | 5.2 | 0.00 | 0.00 | 0.00 | 86 | 1017.9 |
| 20260506133544 | 69 | 169 | 3.5 | 5.2 | 0.00 | 0.00 | 0.00 | 86 | 1018.2 |
| 20260506133041 | 68 | 214 | 2.6 | 2.6 | 0.00 | 0.00 | 0.00 | 87 | 1018.0 |
| 20260506132538 | 68 | 192 | 2.6 | 2.6 | 0.00 | 0.00 | 0.00 | 87 | 1017.9 |
| 20260506132036 | 68 | 192 | 4.3 | 5.2 | 0.00 | 0.00 | 0.00 | 87 | 1017.9 |
| 20260506131532 | 68 | 192 | 2.6 | 4.3 | 0.00 | 0.00 | 0.00 | 88 | 1018.0 |
| 20260506131029 | 68 | 215 | 4.3 | 5.2 | 0.00 | 0.00 | 0.00 | 88 | 1017.8 |
| 20260506130526 | 67 | 193 | 2.6 | 2.6 | 0.00 | 0.00 | 0.00 | 88 | 1017.7 |
| 20260506130023 | 67 | 194 | 2.6 | 4.3 | 0.00 | 0.00 | 0.00 | 89 | 1017.6 |
| 20260506125521 | 67 | 188 | 2.6 | 4.3 | 0.00 | 0.00 | 0.00 | 89 | 1017.2 |
| 20260506125019 | 67 | 187 | 3.5 | 5.2 | 0.00 | 0.00 | 0.00 | 89 | 1017.6 |
| 20260506124517 | 67 | 169 | 6.1 | 7.8 | 0.00 | 0.00 | 0.00 | 89 | 1017.5 |
| 20260506124014 | 66 | 197 | 2.6 | 5.2 | 0.00 | 0.00 | 0.00 | 89 | 1017.4 |
| 20260506123512 | 66 | 176 | 3.5 | 5.2 | 0.00 | 0.00 | 0.00 | 89 | 1017.6 |
| 20260506123010 | 66 | 181 | 2.6 | 5.2 | 0.00 | 0.00 | 0.00 | 89 | 1017.6 |
| 20260506122506 | 66 | 187 | 2.6 | 4.3 | 0.00 | 0.00 | 0.00 | 89 | 1017.6 |
| 20260506122005 | 66 | 187 | 4.3 | 6.1 | 0.00 | 0.00 | 0.00 | 89 | 1017.5 |
| 20260506121501 | 66 | 169 | 2.6 | 4.3 | 0.00 | 0.00 | 0.00 | 89 | 1017.5 |
| 20260506120958 | 66 | 186 | 3.5 | 5.2 | 0.00 | 0.00 | 0.00 | 89 | 1017.3 |
| 20260506120456 | 65 | 202 | 2.6 | 2.6 | 0.00 | 0.00 | 0.00 | 89 | 1017.1 |
| 20260506115953 | 65 | 188 | 1.7 | 1.7 | 0.00 | 0.00 | 0.00 | 89 | 1017.2 |
| 20260506115451 | 65 | 221 | 1.7 | 1.7 | 0.00 | 0.00 | 0.00 | 89 | 1017.1 |
| 20260506114949 | 65 | 186 | 3.5 | 4.3 | 0.00 | 0.00 | 0.00 | 90 | 1017.2 |
| 20260506114446 | 65 | 211 | 1.7 | 1.7 | 0.00 | 0.00 | 0.00 | 90 | 1017.3 |
| 20260506113944 | 64 | 188 | 2.6 | 4.3 | 0.00 | 0.00 | 0.00 | 91 | 1016.7 |
| 20260506113442 | 63 | 202 | 2.6 | 2.6 | 0.00 | 0.00 | 0.00 | 91 | 1016.8 |
| 20260506112938 | 63 | 173 | 2.6 | 2.6 | 0.00 | 0.00 | 0.00 | 92 | 1016.9 |
| 20260506112436 | 63 | 209 | 5.2 | 6.1 | 0.00 | 0.00 | 0.00 | 92 | 1016.9 |
| 20260506111933 | 62 | 198 | 2.6 | 4.3 | 0.00 | 0.00 | 0.00 | 92 | 1016.9 |
| 20260506111431 | 62 | 198 | 3.5 | 4.3 | 0.00 | 0.00 | 0.00 | 93 | 1017.1 |
| 20260506110928 | 62 | 204 | 0.9 | 1.7 | 0.00 | 0.00 | 0.00 | 93 | 1017.0 |
| 20260506110426 | 62 | 228 | 0.9 | 1.7 | 0.00 | 0.00 | 0.00 | 92 | 1016.8 |
| 20260506105922 | 62 | 204 | 0.9 | 0.9 | 0.00 | 0.00 | 0.00 | 92 | 1016.6 |
| 20260506105418 | 61 | 196 | 0.9 | 1.7 | 0.00 | 0.00 | 0.00 | 92 | 1016.9 |
| 20260506104916 | 61 | 210 | 0.9 | 0.9 | 0.00 | 0.00 | 0.00 | 92 | 1017.0 |
| 20260506104414 | 61 | 197 | 2.6 | 4.3 | 0.00 | 0.00 | 0.00 | 92 | 1017.0 |
| 20260506103911 | 61 | 213 | 0.9 | 1.7 | 0.00 | 0.00 | 0.00 | 92 | 1016.7 |
| 20260506103409 | 62 | 203 | 1.7 | 1.7 | 0.00 | 0.00 | 0.00 | 91 | 1016.9 |
| 20260506102905 | 62 | 206 | 2.6 | 2.6 | 0.00 | 0.00 | 0.00 | 91 | 1016.8 |
| 20260506102404 | 62 | 191 | 1.7 | 1.7 | 0.00 | 0.00 | 0.00 | 91 | 1016.8 |
| 20260506101901 | 62 | 200 | 3.5 | 4.3 | 0.00 | 0.00 | 0.00 | 91 | 1016.7 |
| 20260506101356 | 62 | 200 | 1.7 | 2.6 | 0.00 | 0.00 | 0.00 | 91 | 1016.7 |
| 20260506100854 | 62 | 187 | 3.5 | 5.2 | 0.00 | 0.00 | 0.00 | 91 | 1016.7 |
| 20260506100353 | 62 | 200 | 2.6 | 2.6 | 0.00 | 0.00 | 0.00 | 91 | 1017.1 |
| 20260506095850 | 62 | 193 | 1.7 | 1.7 | 0.00 | 0.00 | 0.00 | 91 | 1016.9 |
| 20260506095348 | 62 | 201 | 1.7 | 1.7 | 0.00 | 0.00 | 0.00 | 90 | 1016.8 |
| 20260506094844 | 62 | 212 | 0.0 | 0.0 | 0.00 | 0.00 | 0.00 | 90 | 1016.8 |
| 20260506094343 | 62 | 207 | 0.0 | 0.9 | 0.00 | 0.00 | 0.00 | 90 | 1016.6 |
| 20260506093841 | 62 | 208 | 0.9 | 0.9 | 0.00 | 0.00 | 0.00 | 90 | 1016.9 |
| 20260506093338 | 62 | 192 | 1.7 | 1.7 | 0.00 | 0.00 | 0.00 | 90 | 1016.9 |
| 20260506092835 | 62 | 201 | 0.9 | 0.9 | 0.00 | 0.00 | 0.00 | 90 | 1017.1 |
| 20260506092333 | 62 | 204 | 0.9 | 0.9 | 0.00 | 0.00 | 0.00 | 90 | 1016.9 |
| 20260506091830 | 62 | 187 | 1.7 | 1.7 | 0.00 | 0.00 | 0.00 | 90 | 1017.0 |
| 20260506091328 | 62 | 198 | 1.7 | 1.7 | 0.00 | 0.00 | 0.00 | 90 | 1017.1 |
| 20260506090825 | 62 | 192 | 1.7 | 1.7 | 0.00 | 0.00 | 0.00 | 90 | 1017.0 |
| 20260506090322 | 62 | 182 | 2.6 | 2.6 | 0.00 | 0.00 | 0.00 | 90 | 1017.2 |
| 20260506085819 | 62 | 179 | 3.5 | 4.3 | 0.00 | 0.00 | 0.00 | 90 | 1017.2 |
| 20260506085315 | 62 | 206 | 2.6 | 2.6 | 0.00 | 0.00 | 0.00 | 90 | 1017.5 |
| 20260506084812 | 62 | 208 | 2.6 | 4.3 | 0.00 | 0.00 | 0.00 | 90 | 1017.6 |
| 20260506084308 | 62 | 214 | 1.7 | 2.6 | 0.00 | 0.00 | 0.00 | 90 | 1017.5 |
| 20260506083805 | 61 | 213 | 0.9 | 0.9 | 0.00 | 0.00 | 0.00 | 90 | 1017.3 |
| 20260506083303 | 62 | 199 | 1.7 | 1.7 | 0.00 | 0.00 | 0.00 | 90 | 1017.4 |
| 20260506082800 | 62 | 191 | 1.7 | 2.6 | 0.00 | 0.00 | 0.00 | 90 | 1017.3 |
| 20260506082255 | 62 | 203 | 1.7 | 1.7 | 0.00 | 0.00 | 0.00 | 90 | 1017.2 |
| 20260506081753 | 62 | 200 | 2.6 | 4.3 | 0.00 | 0.00 | 0.00 | 90 | 1017.5 |
| 20260506081251 | 62 | 199 | 2.6 | 2.6 | 0.00 | 0.00 | 0.00 | 89 | 1017.4 |
| 20260506080749 | 61 | 210 | 3.5 | 4.3 | 0.00 | 0.00 | 0.00 | 89 | 1017.3 |
| 20260506080244 | 61 | 216 | 0.0 | 0.9 | 0.00 | 0.00 | 0.00 | 89 | 1017.2 |
| 20260506073229 | 62 | 199 | 2.6 | 2.6 | 0.00 | 0.00 | 0.00 | 88 | 1017.3 |
| 20260506072725 | 62 | 215 | 0.9 | 1.7 | 0.00 | 0.00 | 0.00 | 88 | 1017.3 |
| 20260506072223 | 62 | 207 | 0.0 | 0.9 | 0.00 | 0.00 | 0.00 | 87 | 1017.3 |
| 20260506071721 | 62 | 203 | 1.7 | 1.7 | 0.00 | 0.00 | 0.00 | 87 | 1017.1 |
| 20260506071218 | 62 | 203 | 2.6 | 2.6 | 0.00 | 0.00 | 0.00 | 87 | 1017.0 |
| 20260506070715 | 62 | 191 | 1.7 | 1.7 | 0.00 | 0.00 | 0.00 | 87 | 1017.2 |
| 20260506070212 | 62 | 203 | 0.9 | 1.7 | 0.00 | 0.00 | 0.00 | 87 | 1017.4 |
| 20260506062149 | 63 | 205 | 0.9 | 0.9 | 0.00 | 0.00 | 0.00 | 85 | 1017.3 |
| 20260506061645 | 63 | 209 | 0.0 | 0.0 | 0.00 | 0.00 | 0.00 | 85 | 1017.5 |
| 20260506061142 | 63 | 208 | 0.9 | 0.9 | 0.00 | 0.00 | 0.00 | 84 | 1017.3 |
| 20260506060641 | 64 | 203 | 0.9 | 0.9 | 0.00 | 0.00 | 0.00 | 84 | 1017.3 |
| 20260506060137 | 64 | 202 | 0.9 | 0.9 | 0.00 | 0.00 | 0.00 | 84 | 1017.1 |
| 20260506051109 | 65 | 180 | 1.7 | 2.6 | 0.00 | 0.00 | 0.00 | 82 | 1018.0 |
| 20260506050608 | 65 | 201 | 0.9 | 1.7 | 0.00 | 0.00 | 0.00 | 82 | 1018.1 |
| 20260506050105 | 65 | 210 | 1.7 | 1.7 | 0.00 | 0.00 | 0.00 | 82 | 1018.2 |
| 20260506045058 | 65 | 202 | 1.7 | 1.7 | 0.00 | 0.00 | 0.00 | 82 | 1018.1 |
| 20260506044556 | 65 | 203 | 0.9 | 1.7 | 0.00 | 0.00 | 0.00 | 82 | 1018.0 |
| 20260506044052 | 65 | 212 | 2.6 | 2.6 | 0.00 | 0.00 | 0.00 | 82 | 1017.9 |
| 20260506043549 | 65 | 214 | 3.5 | 4.3 | 0.00 | 0.00 | 0.00 | 82 | 1018.3 |
| 20260506043048 | 65 | 196 | 2.6 | 2.6 | 0.00 | 0.00 | 0.00 | 81 | 1017.9 |
| 20260506042547 | 65 | 193 | 2.6 | 4.3 | 0.00 | 0.00 | 0.00 | 81 | 1018.0 |
| 20260506042044 | 65 | 164 | 3.5 | 4.3 | 0.00 | 0.00 | 0.00 | 81 | 1018.2 |
| 20260506041543 | 65 | 195 | 2.6 | 2.6 | 0.00 | 0.00 | 0.00 | 81 | 1018.3 |
| 20260506041039 | 65 | 197 | 1.7 | 1.7 | 0.00 | 0.00 | 0.00 | 81 | 1018.3 |
| 20260506040537 | 65 | 200 | 1.7 | 1.7 | 0.00 | 0.00 | 0.00 | 81 | 1018.2 |
| 20260506040032 | 65 | 200 | 1.7 | 1.7 | 0.00 | 0.00 | 0.00 | 81 | 1018.0 |
| 20260506035530 | 65 | 154 | 3.5 | 4.3 | 0.00 | 0.00 | 0.00 | 80 | 1018.1 |
| 20260506035026 | 65 | 147 | 2.6 | 2.6 | 0.00 | 0.00 | 0.00 | 80 | 1017.9 |
| 20260506034524 | 65 | 139 | 5.2 | 6.1 | 0.00 | 0.00 | 0.00 | 80 | 1017.7 |
| 20260506034021 | 65 | 195 | 1.7 | 1.7 | 0.00 | 0.00 | 0.00 | 80 | 1018.0 |
| 20260506033518 | 65 | 202 | 1.7 | 2.6 | 0.00 | 0.00 | 0.00 | 80 | 1018.0 |
| 20260506033015 | 65 | 194 | 0.9 | 0.9 | 0.00 | 0.00 | 0.00 | 79 | 1017.9 |
| 20260506032513 | 65 | 182 | 2.6 | 2.6 | 0.00 | 0.00 | 0.00 | 79 | 1017.9 |
| 20260506032009 | 65 | 173 | 1.7 | 2.6 | 0.00 | 0.00 | 0.00 | 79 | 1018.4 |
| 20260506031507 | 66 | 185 | 1.7 | 1.7 | 0.00 | 0.00 | 0.00 | 79 | 1018.2 |
| 20260506031003 | 66 | 134 | 4.3 | 5.2 | 0.00 | 0.00 | 0.00 | 78 | 1018.3 |
| 20260506030501 | 66 | 188 | 1.7 | 1.7 | 0.00 | 0.00 | 0.00 | 78 | 1018.1 |
| 20260506025958 | 66 | 152 | 2.6 | 2.6 | 0.00 | 0.00 | 0.00 | 78 | 1018.5 |
| 20260506025455 | 66 | 189 | 1.7 | 1.7 | 0.00 | 0.00 | 0.00 | 77 | 1018.5 |
| 20260506024951 | 67 | 194 | 3.5 | 4.3 | 0.00 | 0.00 | 0.00 | 77 | 1018.5 |
| 20260506024448 | 67 | 192 | 4.3 | 6.1 | 0.00 | 0.00 | 0.00 | 76 | 1018.8 |
| 20260506023944 | 67 | 204 | 3.5 | 4.3 | 0.00 | 0.00 | 0.00 | 76 | 1018.5 |
| 20260506023441 | 67 | 200 | 0.9 | 1.7 | 0.00 | 0.00 | 0.00 | 76 | 1018.8 |
| 20260506022938 | 68 | 200 | 3.5 | 5.2 | 0.00 | 0.00 | 0.00 | 75 | 1018.7 |
| 20260506022436 | 68 | 189 | 2.6 | 4.3 | 0.00 | 0.00 | 0.00 | 75 | 1018.5 |
| 20260506021933 | 68 | 137 | 4.3 | 6.1 | 0.00 | 0.00 | 0.00 | 75 | 1018.4 |
| 20260506021430 | 68 | 191 | 2.6 | 4.3 | 0.00 | 0.00 | 0.00 | 75 | 1018.3 |
| 20260506020927 | 68 | 187 | 2.6 | 4.3 | 0.00 | 0.00 | 0.00 | 75 | 1018.3 |
| 20260506020425 | 68 | 126 | 3.5 | 5.2 | 0.00 | 0.00 | 0.00 | 74 | 1018.0 |
| 20260506015922 | 68 | 124 | 3.5 | 4.3 | 0.00 | 0.00 | 0.00 | 74 | 1018.1 |
| 20260506015420 | 69 | 173 | 3.5 | 4.3 | 0.00 | 0.00 | 0.00 | 73 | 1017.9 |
| 20260506014916 | 69 | 183 | 3.5 | 4.3 | 0.00 | 0.00 | 0.00 | 73 | 1018.0 |
| 20260506014413 | 69 | 148 | 2.6 | 2.6 | 0.00 | 0.00 | 0.00 | 72 | 1017.8 |
| 20260506013910 | 69 | 124 | 6.1 | 7.0 | 0.00 | 0.00 | 0.00 | 71 | 1017.6 |
| 20260506013408 | 69 | 160 | 4.3 | 6.1 | 0.00 | 0.00 | 0.00 | 71 | 1017.6 |
| 20260506012904 | 70 | 138 | 3.5 | 5.2 | 0.00 | 0.00 | 0.00 | 70 | 1017.4 |
| 20260506012401 | 70 | 161 | 2.6 | 2.6 | 0.00 | 0.00 | 0.00 | 70 | 1017.3 |
| 20260506011858 | 70 | 149 | 4.3 | 5.2 | 0.00 | 0.00 | 0.00 | 69 | 1017.4 |
| 20260506011355 | 70 | 143 | 5.2 | 7.0 | 0.00 | 0.00 | 0.00 | 69 | 1017.4 |
| 20260506010852 | 70 | 137 | 2.6 | 4.3 | 0.00 | 0.00 | 0.00 | 68 | 1017.2 |
| 20260506010350 | 71 | 152 | 4.3 | 5.2 | 0.00 | 0.00 | 0.00 | 68 | 1017.1 |
| 20260506005847 | 71 | 196 | 1.7 | 1.7 | 0.00 | 0.00 | 0.00 | 67 | 1017.3 |
| 20260506005343 | 71 | 164 | 3.5 | 4.3 | 0.00 | 0.00 | 0.00 | 66 | 1017.2 |
| 20260506004839 | 71 | 128 | 7.0 | 8.7 | 0.00 | 0.00 | 0.00 | 65 | 1017.1 |
| 20260506004337 | 72 | 165 | 2.6 | 4.3 | 0.00 | 0.00 | 0.00 | 64 | 1017.1 |
| 20260506003833 | 72 | 131 | 4.3 | 5.2 | 0.00 | 0.00 | 0.00 | 63 | 1016.8 |
| 20260506003329 | 72 | 141 | 3.5 | 4.3 | 0.00 | 0.00 | 0.00 | 63 | 1016.8 |
| 20260506002826 | 73 | 119 | 4.3 | 6.1 | 0.00 | 0.00 | 0.00 | 62 | 1017.1 |
| 20260506002323 | 73 | 144 | 6.1 | 7.8 | 0.00 | 0.00 | 0.00 | 61 | 1016.9 |
| 20260506001818 | 73 | 200 | 0.9 | 1.7 | 0.00 | 0.00 | 0.00 | 61 | 1016.8 |
| 20260506001316 | 74 | 182 | 2.6 | 4.3 | 0.00 | 0.00 | 0.00 | 61 | 1016.9 |
| 20260506000812 | 74 | 159 | 3.5 | 4.3 | 0.00 | 0.00 | 0.00 | 60 | 1016.7 |
| 20260506000310 | 74 | 187 | 4.3 | 7.0 | 0.00 | 0.00 | 0.00 | 60 | 1016.7 |
| 20260505235806 | 75 | 164 | 4.3 | 5.2 | 0.00 | 0.00 | 0.00 | 60 | 1016.6 |
| 20260505235305 | 75 | 178 | 5.2 | 6.1 | 0.00 | 0.00 | 0.00 | 60 | 1016.8 |
| 20260505234801 | 75 | 147 | 4.3 | 5.2 | 0.00 | 0.00 | 0.00 | 60 | 1016.5 |
| 20260505234259 | 76 | 115 | 4.3 | 7.0 | 0.00 | 0.00 | 0.00 | 59 | 1016.7 |
| 20260505233755 | 76 | 146 | 7.0 | 7.0 | 0.00 | 0.00 | 0.00 | 57 | 1016.7 |
| 20260505233253 | 77 | 140 | 4.3 | 5.2 | 0.00 | 0.00 | 0.00 | 56 | 1016.5 |
| 20260505232750 | 77 | 188 | 2.6 | 4.3 | 0.00 | 0.00 | 0.00 | 55 | 1016.5 |
| 20260505232248 | 77 | 187 | 2.6 | 2.6 | 0.00 | 0.00 | 0.00 | 54 | 1016.4 |
| 20260505231744 | 77 | 108 | 6.1 | 7.8 | 0.00 | 0.00 | 0.00 | 53 | 1016.1 |
| 20260505231243 | 77 | 185 | 2.6 | 4.3 | 0.00 | 0.00 | 0.00 | 53 | 1016.4 |
| 20260505230741 | 78 | 127 | 3.5 | 5.2 | 0.00 | 0.00 | 0.00 | 52 | 1016.5 |
| 20260505230237 | 78 | 184 | 4.3 | 6.1 | 0.00 | 0.00 | 0.00 | 52 | 1016.3 |
| 20260505225734 | 78 | 188 | 2.6 | 4.3 | 0.00 | 0.00 | 0.00 | 51 | 1016.2 |
| 20260505225231 | 78 | 138 | 4.3 | 5.2 | 0.00 | 0.00 | 0.00 | 50 | 1016.6 |
| 20260505224726 | 79 | 187 | 4.3 | 6.1 | 0.00 | 0.00 | 0.00 | 50 | 1016.3 |
| 20260505224224 | 79 | 191 | 3.5 | 4.3 | 0.00 | 0.00 | 0.00 | 48 | 1016.5 |
| 20260505223721 | 80 | 183 | 4.3 | 5.2 | 0.00 | 0.00 | 0.00 | 47 | 1016.5 |
| 20260505223217 | 80 | 205 | 3.5 | 4.3 | 0.00 | 0.00 | 0.00 | 46 | 1016.7 |
| 20260505222713 | 80 | 206 | 4.3 | 6.1 | 0.00 | 0.00 | 0.00 | 46 | 1016.5 |
| 20260505222209 | 80 | 189 | 3.5 | 5.2 | 0.00 | 0.00 | 0.00 | 45 | 1016.5 |
| 20260505221707 | 81 | 156 | 7.0 | 8.7 | 0.00 | 0.00 | 0.00 | 44 | 1016.6 |
| 20260505221203 | 81 | 198 | 2.6 | 2.6 | 0.00 | 0.00 | 0.00 | 44 | 1016.5 |
| 20260505220701 | 80 | 213 | 1.7 | 2.6 | 0.00 | 0.00 | 0.00 | 44 | 1016.4 |
| 20260505220159 | 80 | 231 | 3.5 | 5.2 | 0.00 | 0.00 | 0.00 | 43 | 1016.6 |
| 20260505215656 | 81 | 235 | 2.6 | 2.6 | 0.00 | 0.00 | 0.00 | 43 | 1016.5 |
| 20260505215154 | 81 | 186 | 5.2 | 7.0 | 0.00 | 0.00 | 0.00 | 43 | 1016.7 |
| 20260505214651 | 81 | 191 | 4.3 | 6.1 | 0.00 | 0.00 | 0.00 | 43 | 1016.6 |
| 20260505214148 | 81 | 195 | 4.3 | 7.0 | 0.00 | 0.00 | 0.00 | 45 | 1016.8 |
| 20260505213646 | 80 | 162 | 4.3 | 6.1 | 0.00 | 0.00 | 0.00 | 45 | 1016.5 |
| 20260505213143 | 81 | 231 | 7.0 | 12.2 | 0.00 | 0.00 | 0.00 | 45 | 1016.8 |
| 20260505212638 | 80 | 198 | 3.5 | 4.3 | 0.00 | 0.00 | 0.00 | 49 | 1016.6 |
| 20260505212136 | 80 | 187 | 5.2 | 6.1 | 0.00 | 0.00 | 0.00 | 49 | 1016.7 |
| 20260505211633 | 80 | 204 | 6.1 | 7.8 | 0.00 | 0.00 | 0.00 | 47 | 1016.7 |
| 20260505211130 | 80 | 172 | 3.5 | 4.3 | 0.00 | 0.00 | 0.00 | 49 | 1016.8 |
| 20260505210627 | 80 | 174 | 4.3 | 7.0 | 0.00 | 0.00 | 0.00 | 49 | 1016.9 |
| 20260505210123 | 80 | 215 | 0.9 | 0.9 | 0.00 | 0.00 | 0.00 | 48 | 1016.9 |
| 20260505205621 | 81 | 222 | 9.6 | 12.2 | 0.00 | 0.00 | 0.00 | 46 | 1016.8 |
| 20260505205119 | 81 | 178 | 8.7 | 8.7 | 0.00 | 0.00 | 0.00 | 46 | 1017.0 |
| 20260505204616 | 80 | 179 | 6.1 | 7.0 | 0.00 | 0.00 | 0.00 | 48 | 1016.8 |
| 20260505204113 | 82 | 203 | 7.0 | 8.7 | 0.00 | 0.00 | 0.00 | 47 | 1017.2 |
| 20260505203610 | 81 | 173 | 4.3 | 5.2 | 0.00 | 0.00 | 0.00 | 50 | 1016.8 |
| 20260505203107 | 81 | 146 | 6.1 | 8.7 | 0.00 | 0.00 | 0.00 | 49 | 1017.1 |
| 20260505202603 | 81 | 149 | 6.1 | 7.8 | 0.00 | 0.00 | 0.00 | 49 | 1016.8 |
| 20260505202059 | 81 | 131 | 7.8 | 8.7 | 0.00 | 0.00 | 0.00 | 49 | 1016.9 |
| 20260505201555 | 81 | 129 | 6.1 | 7.0 | 0.00 | 0.00 | 0.00 | 50 | 1017.4 |